New Bedford, MA

12:20 AM EDT on March 29, 2017 (GMT -0400)
New Bedford Regional

Weather History for KEWB - March, 2013

Change the Weather History Date:

Wednesday, March 6, 2013

  Actual Average Record
Temperature  
Mean Temperature 38 °F -  
Max Temperature 42 °F 42 °F 62 °F (2011)
Min Temperature 33 °F 29 °F 6 °F (2015)
Degree Days  
Heating Degree Days 28    
Moisture  
Dew Point 34 °F    
Average Humidity 85    
Maximum Humidity 100    
Minimum Humidity 66    
Precipitation  
Precipitation 0.02 in - - ()
Sea Level Pressure  
Sea Level Pressure 29.99 in    
Wind  
Wind Speed 12 mph (NE)    
Max Wind Speed 28 mph    
Max Gust Speed 44 mph    
Visibility 7 miles    
Events Rain    
Averages and records for this station are not official NWS values.
T = Trace of Precipitation, MM = Missing Value Source: NWS Daily Summary

Daily Weather History Graph

Daily Weather History Graph

Search for Another Location

Airport or City:

Trip Planner

Search our weather history database for the weather conditions in past years. The results will help you decide how hot, cold, wet, or windy it might be!

Date:

Astronomy

Mar. 06, 2013 Rise Set
Actual Time 6:10 AM EST 5:40 PM EST
Civil Twilight 5:42 AM EST 6:08 PM EST
Nautical Twilight 5:10 AM EST 6:40 PM EST
Astronomical Twilight 4:38 AM EST 7:12 PM EST
Moon 2:20 AM EST (3/6) 12:15 PM EST (3/6)
Length of Visible Light 12h 25m
Length of Day
11h 30m
Waning Crescent, 30% of the Moon is Illuminated
Mar 6
Waning Crescent
Mar 11
New
Mar 19
First Quarter
Mar 27
Full
Apr 3
Last Quarter

Hourly Weather History & Observations

Time (EST) Temp. Windchill Dew Point Humidity Pressure Visibility Wind Dir Wind Speed Gust Speed Precip Events Conditions
12:35 AM 33.8 °F 30.8 °F 30.2 °F 87% 30.02 in 10.0 mi NNW 3.5 mph - N/A   Overcast
12:53 AM 34.0 °F 31.0 °F 32.0 °F 92% 30.02 in 10.0 mi North 3.5 mph - N/A   Overcast
1:31 AM 35.6 °F 32.8 °F 32.0 °F 87% 30.02 in 10.0 mi North 3.5 mph - N/A   Mostly Cloudy
1:44 AM 35.6 °F - 32.0 °F 87% 30.02 in 10.0 mi Calm Calm - N/A   Overcast
1:53 AM 35.1 °F - 32.0 °F 89% 30.02 in 10.0 mi Calm Calm - N/A   Overcast
2:53 AM 35.1 °F - 33.1 °F 92% 30.02 in 10.0 mi Calm Calm - 0.00 in Rain Light Rain
3:53 AM 35.1 °F 32.2 °F 34.0 °F 96% 30.02 in 10.0 mi NNE 3.5 mph - 0.01 in   Overcast
4:53 AM 37.0 °F 32.4 °F 34.0 °F 89% 30.01 in 10.0 mi NE 5.8 mph - 0.00 in   Overcast
5:19 AM 35.6 °F 30.7 °F 35.6 °F 100% 30.01 in 10.0 mi NNE 5.8 mph - N/A   Overcast
5:31 AM 37.4 °F 31.4 °F 35.6 °F 93% 30.00 in 8.0 mi NE 8.1 mph - 0.00 in Rain Light Rain
5:43 AM 37.4 °F 29.8 °F 35.6 °F 93% 30.00 in 5.0 mi NE 11.5 mph - 0.00 in Rain Light Rain
5:53 AM 37.0 °F 30.4 °F 35.1 °F 93% 30.01 in 10.0 mi ENE 9.2 mph - 0.00 in Rain Light Rain
6:42 AM 37.4 °F 30.3 °F 35.6 °F 93% 30.02 in 10.0 mi ENE 10.4 mph - 0.00 in   Overcast
6:53 AM 37.9 °F 30.5 °F 35.1 °F 89% 30.03 in 10.0 mi ENE 11.5 mph - 0.00 in   Overcast
7:39 AM 39.2 °F 30.2 °F 35.6 °F 87% 30.02 in 4.0 mi ENE 17.3 mph 28.8 mph 0.00 in Rain Light Rain
7:53 AM 39.0 °F 30.3 °F 35.1 °F 86% 30.02 in 8.0 mi ENE 16.1 mph 26.5 mph 0.00 in Rain Light Rain
8:01 AM 39.2 °F 29.8 °F 35.6 °F 87% 30.02 in 7.0 mi ENE 18.4 mph 26.5 mph 0.00 in Rain Light Rain
8:53 AM 39.0 °F 28.5 °F 34.0 °F 82% 30.03 in 10.0 mi ENE 23.0 mph 29.9 mph 0.00 in   Overcast
9:28 AM 39.2 °F 29.3 °F 33.8 °F 81% 30.04 in 10.0 mi ENE 20.7 mph 34.5 mph 0.00 in   Overcast
9:53 AM 39.9 °F 30.0 °F 32.0 °F 73% 30.03 in 9.0 mi NE 21.9 mph 29.9 mph 0.00 in Rain Light Rain
10:53 AM 39.9 °F 30.0 °F 30.9 °F 70% 30.02 in 10.0 mi NE 21.9 mph 31.1 mph 0.00 in   Overcast
11:53 AM 39.9 °F 30.8 °F 32.0 °F 73% 30.02 in 7.0 mi ENE 18.4 mph 29.9 mph 0.00 in Rain Light Rain
12:17 PM 42.8 °F 34.3 °F 32.0 °F 66% 30.01 in 10.0 mi ENE 19.6 mph 31.1 mph 0.00 in Rain Light Rain
12:24 PM 41.0 °F 31.4 °F 33.8 °F 76% 30.01 in 9.0 mi ENE 21.9 mph 31.1 mph 0.00 in Rain Light Rain
12:53 PM 39.9 °F 30.8 °F 33.1 °F 77% 30.00 in 6.0 mi ENE 18.4 mph 31.1 mph 0.00 in Rain Light Rain
1:53 PM 41.0 °F 30.9 °F 34.0 °F 76% 29.98 in 10.0 mi NE 24.2 mph 33.4 mph 0.00 in   Overcast
2:53 PM 39.9 °F 29.5 °F 32.0 °F 73% 29.98 in 9.0 mi NE 24.2 mph 35.7 mph 0.00 in   Overcast
3:53 PM 37.9 °F 28.2 °F 32.0 °F 79% 29.98 in 4.0 mi ENE 18.4 mph 31.1 mph 0.00 in Rain Light Rain
4:05 PM 37.4 °F 28.2 °F 33.8 °F 87% 29.97 in 2.0 mi NE 16.1 mph 26.5 mph 0.00 in Rain Light Rain
4:22 PM 37.4 °F 27.5 °F 33.8 °F 87% 29.98 in 1.8 mi NE 18.4 mph 32.2 mph 0.00 in Rain Light Rain
4:33 PM 37.4 °F 27.5 °F 33.8 °F 87% 29.98 in 1.8 mi NE 18.4 mph 29.9 mph 0.00 in Rain Light Rain
4:53 PM 37.0 °F 25.9 °F 34.0 °F 89% 29.97 in 1.5 mi NE 23.0 mph 32.2 mph 0.01 in Rain Light Rain
5:18 PM 37.4 °F 27.2 °F 33.8 °F 87% 29.96 in 2.5 mi NE 19.6 mph 32.2 mph 0.00 in Rain Light Rain
5:28 PM 37.4 °F 26.9 °F 33.8 °F 87% 29.98 in 3.0 mi NE 20.7 mph 28.8 mph 0.00 in Rain Light Rain
5:53 PM 37.0 °F 26.7 °F 34.0 °F 89% 29.98 in 6.0 mi NE 19.6 mph 32.2 mph 0.00 in Rain Light Rain
6:53 PM 37.0 °F 26.7 °F 34.0 °F 89% 29.97 in 5.0 mi NE 19.6 mph 26.5 mph 0.00 in Rain Light Rain
7:53 PM 37.0 °F 25.9 °F 33.1 °F 86% 29.96 in 8.0 mi NE 23.0 mph 40.3 mph 0.00 in   Overcast
8:17 PM 37.4 °F 26.4 °F 33.8 °F 87% 29.95 in 6.0 mi NE 23.0 mph 29.9 mph 0.00 in Rain Light Rain
8:53 PM 37.0 °F 27.0 °F 33.1 °F 86% 29.95 in 7.0 mi NE 18.4 mph 36.8 mph 0.00 in   Overcast
9:33 PM 37.4 °F 26.6 °F 33.8 °F 87% 29.94 in 8.0 mi NNE 21.9 mph 34.5 mph N/A   Overcast
9:53 PM 37.0 °F 24.9 °F 32.0 °F 82% 29.94 in 10.0 mi NE 27.6 mph 42.6 mph N/A   Overcast
10:53 PM 37.0 °F 25.4 °F 33.1 °F 86% 29.94 in 7.0 mi NE 25.3 mph 34.5 mph N/A   Overcast
11:38 PM 37.4 °F 26.4 °F 33.8 °F 87% 29.92 in 6.0 mi NNE 23.0 mph 43.7 mph 0.00 in   Overcast
11:53 PM 37.0 °F 25.6 °F 33.1 °F 86% 29.93 in 6.0 mi NNE 24.2 mph 39.1 mph 0.00 in Rain Light Rain